| time (UTC) | temp F | wind direction | speed knots | gust knots | rain 1hr in | rain 24hr in | rain mn in | humidity % | barometer mb |
| 20260504214626 | 77 | 22 | 0.9 | 0.9 | 0.00 | 0.00 | 0.00 | 31 | 1008.2 |
| 20260504214122 | 77 | 52 | 0.9 | 1.7 | 0.00 | 0.00 | 0.00 | 30 | 1008.2 |
| 20260504213619 | 77 | 76 | 2.6 | 3.5 | 0.00 | 0.00 | 0.00 | 31 | 1008.3 |
| 20260504213116 | 78 | 23 | 0.9 | 0.9 | 0.00 | 0.00 | 0.00 | 30 | 1008.4 |
| 20260504212612 | 77 | 332 | 1.7 | 2.6 | 0.00 | 0.00 | 0.00 | 32 | 1008.3 |
| 20260504212109 | 77 | 211 | 0.9 | 1.7 | 0.00 | 0.00 | 0.00 | 31 | 1008.6 |
| 20260504211606 | 77 | 126 | 5.2 | 6.1 | 0.00 | 0.00 | 0.00 | 30 | 1008.6 |
| 20260504211102 | 77 | 83 | 3.5 | 7.0 | 0.00 | 0.00 | 0.00 | 30 | 1008.4 |
| 20260504210600 | 78 | 27 | 2.6 | 3.5 | 0.00 | 0.00 | 0.00 | 29 | 1008.7 |
| 20260504210056 | 77 | 20 | 0.9 | 1.7 | 0.00 | 0.00 | 0.00 | 32 | 1008.5 |
| 20260504205554 | 78 | 322 | 3.5 | 7.0 | 0.00 | 0.00 | 0.00 | 29 | 1008.5 |
| 20260504205052 | 78 | 17 | 1.7 | 2.6 | 0.00 | 0.00 | 0.00 | 30 | 1008.4 |
| 20260504204550 | 78 | 108 | 2.6 | 3.5 | 0.00 | 0.00 | 0.00 | 31 | 1008.6 |
| 20260504204049 | 77 | 325 | 1.7 | 1.7 | 0.00 | 0.00 | 0.00 | 31 | 1008.6 |
| 20260504203546 | 77 | 106 | 1.7 | 2.6 | 0.00 | 0.00 | 0.00 | 33 | 1008.4 |
| 20260504203044 | 77 | 78 | 3.5 | 3.5 | 0.00 | 0.00 | 0.00 | 31 | 1008.6 |
| 20260504202539 | 77 | 26 | 0.0 | 0.0 | 0.00 | 0.00 | 0.00 | 31 | 1008.6 |
| 20260504202036 | 79 | 194 | 2.6 | 2.6 | 0.00 | 0.00 | 0.00 | 30 | 1009.0 |
| 20260504201533 | 79 | 77 | 2.6 | 2.6 | 0.00 | 0.00 | 0.00 | 30 | 1008.8 |
| 20260504201031 | 78 | 14 | 0.0 | 0.0 | 0.00 | 0.00 | 0.00 | 32 | 1008.8 |
| 20260504200527 | 77 | 299 | 2.6 | 2.6 | 0.00 | 0.00 | 0.00 | 32 | 1008.8 |
| 20260504200024 | 77 | 209 | 3.5 | 6.1 | 0.00 | 0.00 | 0.00 | 31 | 1008.9 |
| 20260504195520 | 78 | 185 | 2.6 | 2.6 | 0.00 | 0.00 | 0.00 | 30 | 1008.8 |
| 20260504195017 | 78 | 0 | 2.6 | 3.5 | 0.00 | 0.00 | 0.00 | 32 | 1009.0 |
| 20260504194513 | 77 | 10 | 2.6 | 2.6 | 0.00 | 0.00 | 0.00 | 31 | 1009.2 |
| 20260504194008 | 77 | 125 | 2.6 | 5.2 | 0.00 | 0.00 | 0.00 | 32 | 1009.2 |
| 20260504193506 | 76 | 137 | 1.7 | 2.6 | 0.00 | 0.00 | 0.00 | 31 | 1009.4 |
| 20260504193004 | 77 | 325 | 2.6 | 5.2 | 0.00 | 0.00 | 0.00 | 31 | 1009.5 |
| 20260504192502 | 77 | 194 | 1.7 | 2.6 | 0.00 | 0.00 | 0.00 | 30 | 1009.6 |
| 20260504192000 | 77 | 69 | 1.7 | 2.6 | 0.00 | 0.00 | 0.00 | 31 | 1009.8 |
| 20260504191458 | 77 | 15 | 2.6 | 2.6 | 0.00 | 0.00 | 0.00 | 29 | 1009.8 |
| 20260504190953 | 77 | 2 | 5.2 | 6.1 | 0.00 | 0.00 | 0.00 | 30 | 1009.8 |
| 20260504190449 | 77 | 354 | 0.9 | 0.9 | 0.00 | 0.00 | 0.00 | 31 | 1009.8 |
| 20260504185946 | 77 | 165 | 2.6 | 3.5 | 0.00 | 0.00 | 0.00 | 31 | 1010.0 |
| 20260504185443 | 77 | 14 | 0.9 | 1.7 | 0.00 | 0.00 | 0.00 | 30 | 1009.9 |
| 20260504184939 | 77 | 210 | 1.7 | 2.6 | 0.00 | 0.00 | 0.00 | 31 | 1010.1 |
| 20260504184434 | 77 | 142 | 0.9 | 1.7 | 0.00 | 0.00 | 0.00 | 30 | 1010.2 |
| 20260504183931 | 76 | 230 | 2.6 | 2.6 | 0.00 | 0.00 | 0.00 | 32 | 1010.3 |
| 20260504183428 | 77 | 334 | 6.1 | 7.0 | 0.00 | 0.00 | 0.00 | 28 | 1010.5 |
| 20260504182926 | 76 | 73 | 0.9 | 0.9 | 0.00 | 0.00 | 0.00 | 30 | 1010.5 |
| 20260504182423 | 76 | 191 | 1.7 | 2.6 | 0.00 | 0.00 | 0.00 | 30 | 1010.4 |
| 20260504181920 | 76 | 84 | 2.6 | 2.6 | 0.00 | 0.00 | 0.00 | 33 | 1010.5 |
| 20260504181417 | 77 | 24 | 0.9 | 0.9 | 0.00 | 0.00 | 0.00 | 30 | 1010.5 |
| 20260504180916 | 76 | 351 | 1.7 | 2.6 | 0.00 | 0.00 | 0.00 | 32 | 1010.6 |
| 20260504180414 | 75 | 2 | 2.6 | 3.5 | 0.00 | 0.00 | 0.00 | 33 | 1010.5 |
| 20260504175912 | 75 | 350 | 0.0 | 0.9 | 0.00 | 0.00 | 0.00 | 34 | 1010.7 |
| 20260504175409 | 76 | 201 | 3.5 | 3.5 | 0.00 | 0.00 | 0.00 | 28 | 1010.9 |
| 20260504174906 | 76 | 12 | 1.7 | 2.6 | 0.00 | 0.00 | 0.00 | 30 | 1010.8 |
| 20260504174404 | 75 | 188 | 3.5 | 5.2 | 0.00 | 0.00 | 0.00 | 29 | 1010.9 |
| 20260504173901 | 75 | 22 | 0.9 | 1.7 | 0.00 | 0.00 | 0.00 | 30 | 1010.9 |
| 20260504173357 | 75 | 211 | 1.7 | 3.5 | 0.00 | 0.00 | 0.00 | 35 | 1011.0 |
| 20260504172854 | 74 | 135 | 2.6 | 5.2 | 0.00 | 0.00 | 0.00 | 31 | 1011.0 |
| 20260504172351 | 75 | 350 | 2.6 | 3.5 | 0.00 | 0.00 | 0.00 | 29 | 1011.0 |
| 20260504171847 | 75 | 291 | 2.6 | 2.6 | 0.00 | 0.00 | 0.00 | 29 | 1011.3 |
| 20260504171344 | 75 | 59 | 0.9 | 0.9 | 0.00 | 0.00 | 0.00 | 30 | 1011.1 |
| 20260504170841 | 74 | 146 | 6.1 | 8.7 | 0.00 | 0.00 | 0.00 | 30 | 1011.4 |
| 20260504170338 | 74 | 137 | 4.3 | 7.8 | 0.00 | 0.00 | 0.00 | 30 | 1011.5 |
| 20260504160256 | 72 | 36 | 0.9 | 0.9 | 0.00 | 0.00 | 0.00 | 32 | 1012.1 |
| 20260504150722 | 70 | 4 | 2.6 | 3.5 | 0.00 | 0.00 | 0.00 | 33 | 1012.7 |
| 20260504150218 | 70 | 130 | 3.5 | 5.2 | 0.00 | 0.00 | 0.00 | 33 | 1012.8 |
| 20260504141148 | 67 | 46 | 0.0 | 0.9 | 0.00 | 0.00 | 0.00 | 38 | 1012.9 |
| 20260504140645 | 66 | 34 | 0.9 | 0.9 | 0.00 | 0.00 | 0.00 | 41 | 1012.7 |
| 20260504140140 | 66 | 356 | 3.5 | 5.2 | 0.00 | 0.00 | 0.00 | 37 | 1012.8 |
| 20260504130608 | 60 | 39 | 0.9 | 0.9 | 0.00 | 0.00 | 0.00 | 47 | 1013.2 |
| 20260504130105 | 60 | 116 | 3.5 | 3.5 | 0.00 | 0.00 | 0.00 | 49 | 1013.2 |
| 20260504110456 | 41 | 30 | 0.0 | 0.0 | 0.00 | 0.00 | 0.00 | 92 | 1014.0 |
| 20260504100418 | 42 | 27 | 0.0 | 0.0 | 0.00 | 0.00 | 0.00 | 91 | 1013.9 |
| 20260504081811 | 40 | 27 | 0.0 | 0.0 | 0.00 | 0.00 | 0.00 | 91 | 1014.6 |
| 20260504081308 | 40 | 27 | 0.0 | 0.0 | 0.00 | 0.00 | 0.00 | 91 | 1014.7 |
| 20260504080804 | 40 | 29 | 0.0 | 0.0 | 0.00 | 0.00 | 0.00 | 91 | 1014.6 |
| 20260504080301 | 40 | 29 | 0.0 | 0.0 | 0.00 | 0.00 | 0.00 | 91 | 1014.6 |
| 20260504070228 | 40 | 29 | 0.0 | 0.0 | 0.00 | 0.00 | 0.00 | 90 | 1014.6 |
| 20260504060149 | 39 | 23 | 0.0 | 0.9 | 0.00 | 0.00 | 0.00 | 91 | 1014.9 |
| 20260504050617 | 39 | 29 | 0.0 | 0.0 | 0.00 | 0.00 | 0.00 | 89 | 1014.9 |
| 20260504050114 | 39 | 27 | 0.0 | 0.0 | 0.00 | 0.00 | 0.00 | 89 | 1014.9 |
| 20260504045611 | 39 | 27 | 0.0 | 0.9 | 0.00 | 0.00 | 0.00 | 89 | 1014.8 |
| 20260504045106 | 39 | 24 | 0.0 | 0.0 | 0.00 | 0.00 | 0.00 | 89 | 1014.8 |
| 20260504044604 | 39 | 28 | 0.0 | 0.0 | 0.00 | 0.00 | 0.00 | 89 | 1014.8 |
| 20260504044100 | 39 | 27 | 0.0 | 0.0 | 0.00 | 0.00 | 0.00 | 89 | 1014.7 |
| 20260504043558 | 39 | 25 | 0.0 | 0.0 | 0.00 | 0.00 | 0.00 | 88 | 1014.8 |
| 20260504043055 | 39 | 25 | 0.0 | 0.9 | 0.00 | 0.00 | 0.00 | 88 | 1014.7 |
| 20260504042552 | 39 | 27 | 0.0 | 0.0 | 0.00 | 0.00 | 0.00 | 88 | 1015.0 |
| 20260504042049 | 39 | 26 | 0.0 | 0.0 | 0.00 | 0.00 | 0.00 | 87 | 1015.0 |
| 20260504041544 | 39 | 26 | 0.0 | 0.0 | 0.00 | 0.00 | 0.00 | 87 | 1014.7 |
| 20260504041041 | 39 | 33 | 0.0 | 0.0 | 0.00 | 0.00 | 0.00 | 86 | 1014.8 |
| 20260504040539 | 40 | 33 | 0.0 | 0.0 | 0.00 | 0.00 | 0.00 | 85 | 1014.9 |
| 20260504040035 | 40 | 33 | 0.0 | 0.0 | 0.00 | 0.00 | 0.00 | 85 | 1014.8 |
| 20260504035532 | 40 | 33 | 0.0 | 0.0 | 0.00 | 0.00 | 0.00 | 85 | 1014.9 |
| 20260504035028 | 40 | 33 | 0.0 | 0.0 | 0.00 | 0.00 | 0.00 | 84 | 1014.7 |
| 20260504034526 | 40 | 33 | 0.0 | 0.0 | 0.00 | 0.00 | 0.00 | 83 | 1014.4 |
| 20260504034023 | 40 | 33 | 0.0 | 0.0 | 0.00 | 0.00 | 0.00 | 82 | 1014.7 |
| 20260504033521 | 40 | 33 | 0.0 | 0.0 | 0.00 | 0.00 | 0.00 | 82 | 1014.6 |
| 20260504033018 | 40 | 33 | 0.0 | 0.0 | 0.00 | 0.00 | 0.00 | 82 | 1014.3 |
| 20260504032515 | 40 | 34 | 0.0 | 0.0 | 0.00 | 0.00 | 0.00 | 81 | 1014.2 |
| 20260504032012 | 40 | 33 | 0.0 | 0.0 | 0.00 | 0.00 | 0.00 | 80 | 1014.2 |
| 20260504031509 | 41 | 33 | 0.0 | 0.0 | 0.00 | 0.00 | 0.00 | 80 | 1014.2 |
| 20260504031005 | 41 | 33 | 0.0 | 0.0 | 0.00 | 0.00 | 0.00 | 78 | 1014.2 |
| 20260504030502 | 41 | 33 | 0.0 | 0.0 | 0.00 | 0.00 | 0.00 | 77 | 1014.2 |
| 20260504025958 | 41 | 33 | 0.0 | 0.0 | 0.00 | 0.00 | 0.00 | 77 | 1014.2 |
| 20260504025455 | 42 | 33 | 0.0 | 0.0 | 0.00 | 0.00 | 0.00 | 77 | 1014.1 |
| 20260504024952 | 42 | 33 | 0.0 | 0.0 | 0.00 | 0.00 | 0.00 | 76 | 1014.1 |
| 20260504024449 | 42 | 33 | 0.0 | 0.0 | 0.00 | 0.00 | 0.00 | 75 | 1014.1 |
| 20260504023946 | 42 | 33 | 0.0 | 0.0 | 0.00 | 0.00 | 0.00 | 74 | 1014.1 |
| 20260504023443 | 43 | 33 | 0.0 | 0.0 | 0.00 | 0.00 | 0.00 | 74 | 1014.1 |
| 20260504022938 | 43 | 33 | 0.0 | 0.0 | 0.00 | 0.00 | 0.00 | 73 | 1014.0 |
| 20260504022435 | 43 | 33 | 0.0 | 0.0 | 0.00 | 0.00 | 0.00 | 72 | 1014.1 |
| 20260504021931 | 43 | 33 | 0.0 | 0.0 | 0.00 | 0.00 | 0.00 | 72 | 1014.0 |
| 20260504021429 | 43 | 33 | 0.0 | 0.0 | 0.00 | 0.00 | 0.00 | 70 | 1014.0 |
| 20260504020926 | 44 | 33 | 0.0 | 0.0 | 0.00 | 0.00 | 0.00 | 69 | 1014.2 |
| 20260504020422 | 44 | 34 | 0.0 | 0.0 | 0.00 | 0.00 | 0.00 | 69 | 1014.2 |
| 20260504015919 | 44 | 33 | 0.0 | 0.0 | 0.00 | 0.00 | 0.00 | 69 | 1013.9 |
| 20260504015415 | 44 | 33 | 0.0 | 0.0 | 0.00 | 0.00 | 0.00 | 67 | 1014.1 |
| 20260504014911 | 45 | 33 | 0.0 | 0.0 | 0.00 | 0.00 | 0.00 | 66 | 1014.0 |
| 20260504014407 | 45 | 33 | 0.0 | 0.0 | 0.00 | 0.00 | 0.00 | 65 | 1013.9 |
| 20260504013904 | 46 | 33 | 0.0 | 0.0 | 0.00 | 0.00 | 0.00 | 64 | 1014.0 |
| 20260504013403 | 46 | 34 | 0.0 | 0.0 | 0.00 | 0.00 | 0.00 | 65 | 1014.0 |
| 20260504012859 | 46 | 35 | 0.0 | 0.0 | 0.00 | 0.00 | 0.00 | 63 | 1013.9 |
| 20260504012357 | 47 | 31 | 0.0 | 0.0 | 0.00 | 0.00 | 0.00 | 61 | 1013.8 |
| 20260504011854 | 47 | 31 | 0.0 | 0.0 | 0.00 | 0.00 | 0.00 | 61 | 1013.8 |
| 20260504011350 | 47 | 29 | 0.0 | 0.0 | 0.00 | 0.00 | 0.00 | 60 | 1013.8 |
| 20260504010846 | 48 | 31 | 0.0 | 0.0 | 0.00 | 0.00 | 0.00 | 58 | 1013.6 |
| 20260504010342 | 48 | 32 | 0.0 | 0.0 | 0.00 | 0.00 | 0.00 | 57 | 1013.5 |
| 20260504005839 | 48 | 33 | 0.0 | 0.0 | 0.00 | 0.00 | 0.00 | 57 | 1013.6 |
| 20260504005336 | 49 | 34 | 0.0 | 0.0 | 0.00 | 0.00 | 0.00 | 55 | 1013.7 |
| 20260504004833 | 49 | 34 | 0.0 | 0.0 | 0.00 | 0.00 | 0.00 | 54 | 1013.6 |
| 20260504004331 | 49 | 33 | 0.0 | 0.0 | 0.00 | 0.00 | 0.00 | 54 | 1013.3 |
| 20260504003827 | 50 | 32 | 0.0 | 0.0 | 0.00 | 0.00 | 0.00 | 51 | 1013.3 |
| 20260504003324 | 51 | 32 | 0.0 | 0.0 | 0.00 | 0.00 | 0.00 | 51 | 1013.4 |
| 20260504002821 | 51 | 33 | 0.0 | 0.0 | 0.00 | 0.00 | 0.00 | 49 | 1013.4 |
| 20260504002317 | 52 | 33 | 0.0 | 0.0 | 0.00 | 0.00 | 0.00 | 47 | 1013.2 |
| 20260504001815 | 53 | 34 | 0.0 | 0.0 | 0.00 | 0.00 | 0.00 | 45 | 1013.2 |
| 20260504001312 | 53 | 33 | 0.0 | 0.0 | 0.00 | 0.00 | 0.00 | 43 | 1013.4 |
| 20260504000809 | 54 | 35 | 0.0 | 0.9 | 0.00 | 0.00 | 0.00 | 43 | 1013.2 |
| 20260504000306 | 55 | 33 | 0.0 | 0.0 | 0.00 | 0.00 | 0.00 | 42 | 1013.0 |
| 20260503235804 | 55 | 32 | 0.0 | 0.0 | 0.00 | 0.00 | 0.00 | 40 | 1013.0 |
| 20260503235301 | 56 | 32 | 0.0 | 0.0 | 0.00 | 0.00 | 0.00 | 39 | 1012.9 |
| 20260503234759 | 57 | 31 | 0.0 | 0.0 | 0.00 | 0.00 | 0.00 | 36 | 1012.8 |
| 20260503234256 | 58 | 31 | 0.0 | 0.0 | 0.00 | 0.00 | 0.00 | 38 | 1012.9 |
| 20260503233754 | 59 | 30 | 0.0 | 0.0 | 0.00 | 0.00 | 0.00 | 37 | 1012.7 |
| 20260503233249 | 60 | 29 | 0.0 | 0.0 | 0.00 | 0.00 | 0.00 | 36 | 1012.8 |
| 20260503232746 | 60 | 17 | 0.9 | 1.7 | 0.00 | 0.00 | 0.00 | 32 | 1012.7 |
| 20260503232243 | 60 | 24 | 0.9 | 0.9 | 0.00 | 0.00 | 0.00 | 32 | 1012.6 |
| 20260503231741 | 61 | 9 | 0.9 | 1.7 | 0.00 | 0.00 | 0.00 | 31 | 1012.5 |
| 20260503231238 | 61 | 83 | 1.7 | 2.6 | 0.00 | 0.00 | 0.00 | 31 | 1012.5 |
| 20260503230734 | 61 | 22 | 0.0 | 0.9 | 0.00 | 0.00 | 0.00 | 31 | 1012.5 |
| 20260503230232 | 61 | 39 | 0.9 | 0.9 | 0.00 | 0.00 | 0.00 | 30 | 1012.5 |
| 20260503225729 | 62 | 6 | 0.9 | 1.7 | 0.00 | 0.00 | 0.00 | 30 | 1012.7 |
| 20260503225229 | 62 | 24 | 0.0 | 0.0 | 0.00 | 0.00 | 0.00 | 31 | 1012.5 |
| 20260503224726 | 62 | 22 | 0.9 | 0.9 | 0.00 | 0.00 | 0.00 | 29 | 1012.6 |
| 20260503224224 | 62 | 347 | 0.0 | 0.9 | 0.00 | 0.00 | 0.00 | 29 | 1012.6 |
| 20260503223721 | 62 | 149 | 0.9 | 1.7 | 0.00 | 0.00 | 0.00 | 31 | 1012.5 |
| 20260503223219 | 62 | 358 | 3.5 | 6.1 | 0.00 | 0.00 | 0.00 | 30 | 1012.5 |
| 20260503222715 | 62 | 351 | 2.6 | 2.6 | 0.00 | 0.00 | 0.00 | 28 | 1012.7 |
| 20260503222213 | 63 | 59 | 1.7 | 2.6 | 0.00 | 0.00 | 0.00 | 27 | 1012.6 |
| 20260503221711 | 63 | 62 | 1.7 | 5.2 | 0.00 | 0.00 | 0.00 | 27 | 1012.7 |
| 20260503221209 | 63 | 1 | 3.5 | 5.2 | 0.00 | 0.00 | 0.00 | 28 | 1012.6 |
| 20260503220705 | 63 | 2 | 1.7 | 2.6 | 0.00 | 0.00 | 0.00 | 27 | 1012.7 |
| 20260503220201 | 64 | 325 | 3.5 | 3.5 | 0.00 | 0.00 | 0.00 | 27 | 1012.7 |
| 20260503215658 | 63 | 58 | 0.9 | 0.9 | 0.00 | 0.00 | 0.00 | 28 | 1012.8 |
| 20260503215155 | 64 | 357 | 1.7 | 3.5 | 0.00 | 0.00 | 0.00 | 27 | 1012.8 |